ARGENTIA (MARS), Canada

4:05 PM NST on December 05, 2016 (GMT -0330)
Argentia

Weather History for CWAR - November, 2012

Change the Weather History Date:

Monday, November 5, 2012

  Actual Average Record
Temperature  
Mean Temperature 49 °F -  
Max Temperature 52 °F - - ()
Min Temperature 46 °F - - ()
Degree Days  
Heating Degree Days 16    
Moisture  
Dew Point 47 °F    
Average Humidity 88    
Maximum Humidity 93    
Minimum Humidity 83    
Precipitation  
Precipitation 0.00 in - - ()
Sea Level Pressure  
Sea Level Pressure 29.84 in    
Wind  
Wind Speed 11 mph ()    
Max Wind Speed 18 mph    
Max Gust Speed -    
T = Trace of Precipitation, MM = Missing Value Source: Averaged Metar Reports

Daily Weather History Graph

Daily Weather History Graph

Search for Another Location

Airport or City:

Trip Planner

Search our weather history database for the weather conditions in past years. The results will help you decide how hot, cold, wet, or windy it might be!

Date:

Astronomy

Nov. 05, 2012 Rise Set
Actual Time 6:55 AM NST 4:42 PM NST
Civil Twilight 6:23 AM NST 5:15 PM NST
Nautical Twilight 5:47 AM NST 5:51 PM NST
Astronomical Twilight 5:11 AM NST 6:27 PM NST
Moon 10:14 PM NST 12:13 PM NST
Length of Visible Light 10h 51m
Length of Day
9h 46m
Waning Gibbous, 63% of the Moon is Illuminated
Nov 5
Waning Gibbous
Nov 6
Last Quarter
Nov 13
New
Nov 20
First Quarter
Nov 28
Full

Hourly Weather History & Observations

Time (NST) Temp. Windchill Dew Point Humidity Pressure Visibility Wind Dir Wind Speed Gust Speed Precip Events Conditions
12:30 AM 50.2 °F - 48.2 °F 93% 29.58 in - WSW 17.3 mph - N/A   Unknown
1:30 AM 50.5 °F - 48.2 °F 92% 29.59 in - West 18.4 mph - N/A   Unknown
2:30 AM 50 °F - 48 °F 91% 29.61 in - West 16.1 mph - -  
2:30 AM 50.4 °F - 48.2 °F 92% 29.61 in - West 16.1 mph - N/A   Unknown
3:30 AM 50.0 °F - 47.7 °F 92% 29.65 in - West 8.1 mph - N/A   Unknown
4:30 AM 50.0 °F - 46.6 °F 88% 29.68 in - WNW 6.9 mph - N/A   Unknown
5:30 AM 50 °F - 47 °F 85% 29.70 in - WNW 5.8 mph - -  
5:30 AM 49.8 °F - 46.8 °F 89% 29.70 in - WNW 5.8 mph - N/A   Unknown
6:30 AM 49.3 °F - 46.8 °F 91% 29.73 in - NW 5.8 mph - N/A   Unknown
7:30 AM 49.3 °F - 45.9 °F 88% 29.77 in - WNW 3.5 mph - N/A   Unknown
8:30 AM 50 °F - 47 °F 85% 29.79 in - Calm Calm - -  
8:30 AM 49.8 °F - 46.9 °F 90% 29.79 in - Calm Calm - N/A   Unknown
9:30 AM 50.4 °F - 46.2 °F 86% 29.81 in - SW 4.6 mph - N/A   Unknown
10:30 AM 50.9 °F - 47.1 °F 87% 29.83 in - SW 11.5 mph - N/A   Unknown
11:30 AM 52 °F - 49 °F 85% 29.83 in - SW 6.9 mph - -  
11:30 AM 51.6 °F - 48.9 °F 90% 29.83 in - SW 6.9 mph - N/A   Unknown
12:30 PM 51.1 °F - 47.1 °F 86% 29.83 in - SW 9.2 mph - N/A   Unknown
1:30 PM 50.2 °F - 47.5 °F 90% 29.84 in - SW 16.1 mph - N/A   Unknown
2:30 PM 51 °F - 47 °F 83% 29.86 in - SW 16.1 mph - -  
2:30 PM 50.7 °F - 47.3 °F 88% 29.86 in - SW 16.1 mph - N/A   Unknown
3:30 PM 49.8 °F - 46.6 °F 89% 29.89 in - SW 17.3 mph - N/A   Unknown
4:30 PM 49.8 °F - 46.6 °F 89% 29.92 in - SSW 16.1 mph - N/A   Unknown
5:30 PM 50 °F - 47 °F 85% 29.96 in - SW 16.1 mph - -  
5:30 PM 49.8 °F - 46.8 °F 89% 29.96 in - SW 16.1 mph - N/A   Unknown
6:30 PM 49.6 °F - 46.0 °F 87% 29.98 in - SW 18.4 mph - N/A   Unknown
7:30 PM 49.5 °F - 46.0 °F 88% 29.99 in - SW 16.1 mph - N/A   Unknown
8:30 PM 49 °F - 46 °F 83% 30.02 in - SSW 12.7 mph - -  
8:30 PM 48.7 °F - 45.5 °F 89% 30.02 in - SSW 12.7 mph - N/A   Unknown
9:30 PM 47.1 °F - 44.2 °F 90% 30.04 in - SSW 10.4 mph - N/A   Unknown
10:30 PM 46.2 °F 41.7 °F 43.2 °F 89% 30.04 in - South 9.2 mph - N/A   Unknown
11:30 PM 46 °F - 42 °F 83% 30.04 in - South 11.5 mph - -  
11:30 PM 46.4 °F 41.1 °F 42.4 °F 86% 30.04 in - South 11.5 mph - N/A   Unknown